Location: Newark
(47.1000°N, 5.3000°E)
Time: 17:19:49
(UTC+00:00)

N. Korean satellite - Visible Passes

Search period start: 22 October 2019 00:00
Search period end: 01 November 2019 00:00
Orbit: 455 x 508 km, 97.2° (Epoch: 21 October)

Date Brightness Start Highest point End Pass type
(mag) Time Alt. Az. Time Alt. Az. Time Alt. Az.
22 Oct 7.1 05:31:18 10° NNE 05:34:55 66° E 05:38:33 10° S visible
22 Oct 10.0 17:44:31 10° SW 17:46:37 15° W 17:48:44 10° NW visible
23 Oct 8.7 05:06:14 10° NNE 05:09:32 32° E 05:12:52 10° SSE visible
23 Oct 8.9 17:18:04 10° SSW 17:21:07 29° W 17:24:13 10° NNW visible
24 Oct 9.9 04:41:35 10° NE 04:44:04 17° E 04:46:34 10° SE visible
26 Oct 7.6 05:23:27 10° NNE 05:27:03 53° E 05:30:40 10° S visible
26 Oct 9.7 17:36:09 10° SW 17:38:40 19° W 17:41:12 10° NW visible
27 Oct 9.1 04:58:28 10° NE 05:01:38 27° E 05:04:49 10° SSE visible
27 Oct 8.3 17:09:57 10° SSW 17:13:11 36° W 17:16:28 10° NNW visible
28 Oct 10.1 04:34:03 10° NE 04:36:08 14° E 04:38:15 10° SE visible
29 Oct 6.7 05:40:48 10° NNE 05:44:30 88° E 05:48:12 10° SSW visible
29 Oct 10.2 17:54:48 10° WSW 17:56:13 12° W 17:57:40 10° WNW visible
30 Oct 8.1 05:15:36 10° NNE 05:19:08 43° E 05:22:41 10° S visible
30 Oct 9.3 17:27:51 10° SSW 17:30:41 23° W 17:33:33 10° NW visible
31 Oct 9.4 04:50:43 10° NE 04:53:41 22° E 04:56:39 10° SSE visible
31 Oct 7.8 17:01:51 10° S 17:05:12 46° W 17:08:39 10° NNW visible
